Terug naar catalogus

STARLINK-38031

ActiefCommunicatieVLEO
NORAD 69827·PAYLOAD·🇺🇸 United States

Gelanceerd Jul 5, 2026 vanaf Cape Canaveral Space Force Station

Loading…

Volgende Passages (komende 24 uur)

TLE

VersSource: CelesTrak SupGP

Epoch: Sep 15, 2026, 03:48 UTC

1 69827C 26154J   26258.15881944  .00074478  00000+0  21998-2 0  2581
2 69827  53.1602 356.8874 0001160  80.6221 347.9378 15.34363494    13

Volg STARLINK-38031 in realtime met AllMySat

Download on the App Store